« Back
NWS Peachtree City, Ga » Text Product » GA Regional Weather Roundup


Printer-friendly Version
Current Version              Previous Versions:   1  2  3  4  5  6  7  8  9  

Regional Weather Roundup

006
ASUS42 KFFC 010903
RWRGA
WEATHER ROUNDUP FOR GEORGIA
NATIONAL WEATHER SERVICE PEACHTREE CITY GA
500 AM EDT SUN MAY 01 2016

NOTE: "FAIR" INDICATES FEW OR NO CLOUDS BELOW 12,000 FEET WITH NO
SIGNIFICANT WEATHER AND/OR OBSTRUCTIONS TO VISIBILITY.

* = USE WITH CAUTION. THE STATIONS MARKED WITH AN ASTERISK MAY NOT
REPORT WEATHER SUCH AS PRECIPITATION, FOG, OR THUNDER AND ARE NOT
QUALITY CONTROLLED BY NWS.

THE REMARK "TC" DENOTES TEMPERATURE READING IN DEGREES CELSIUS.

GAZ001>058-011000-
NORTH GEORGIA

CITY           SKY/WX    TMP DP  RH WIND       PRES   REMARKS
ATLANTA        CLOUDY    67  65  93 SE3       29.98S FOG
ATHENS         LGT RAIN  67  67 100 CALM      30.00R FOG
CHAMBLEE       MOCLDY    66  66 100 CALM      29.99R
PEACHTREE CITY PTCLDY    64  63  96 CALM      29.99R FOG
ROME           PTCLDY    64  63  96 CALM      29.96R
WEST ATLANTA   PTCLDY    66  64  93 CALM      29.98R FOG
GAINESVILLE    CLOUDY    65  64  97 E5        30.03R
CARTERSVILLE   PTCLDY    65  64  97 CALM      29.98R


CITY           SKY/WX    TMP DP  RH WIND       PRES   REMARKS
DALTON*        CLEAR     63  63 100 CALM      29.97R
MARIETTA       PTCLDY    66  66 100 E1        29.99R
CANTON*        CLOUDY    64  63  94 CALM      30.01S FOG
BLAIRSVILLE*     N/A    N/A N/A N/A MISG      30.03R
$$

GAZ059>098-102>109-011000-
CENTRAL GEORGIA

CITY           SKY/WX    TMP DP  RH WIND       PRES   REMARKS
AUGUSTA-BUSH   CLOUDY    72  68  87 SE6       30.00R
AUGUSTA-DANIEL CLOUDY    73  67  81 SE7       30.01S
COLUMBUS       PTCLDY    70  64  81 CALM      29.97R
MACON          CLOUDY    67  65  93 SE5       29.98S
ROBINS AFB     CLOUDY    68  67  98 SE7       29.98R


CITY           SKY/WX    TMP DP  RH WIND       PRES   REMARKS
LAGRANGE*      PTCLDY    66  66 100 CALM      29.98R
SYLVANIA*      CLOUDY    73  72  97 CALM      30.01S
MILLEDGEVILLE* CLOUDY    68  68 100 CALM      29.99S FOG
$$

GAZ099>101-110>166-011000-
SOUTH GEORGIA

CITY           SKY/WX    TMP DP  RH WIND       PRES   REMARKS
SAVANNAH       CLOUDY    74  71  91 SE8       30.01F
VALDOSTA       CLOUDY    71  70  96 SE5       29.96F
ALMA           CLEAR     71  70  96 SE5       29.98S
ST SIMONS      CLOUDY    73  73 100 SE6       30.01F
FT STEWART     CLOUDY    73  70  89 SE7       29.98F
ALBANY         CLOUDY    71  67  87 E3        29.99R
HUNTER AFB     CLOUDY    75  75 100 SE8       29.98F
MOODY AFB      CLOUDY    70  67  90 SE3       29.96S
BRUNSWICK      CLOUDY    77  73  88 SE8       30.01F


CITY           SKY/WX    TMP DP  RH WIND       PRES   REMARKS
BAINBRIDGE*    CLOUDY    72  70  94 S3        29.95S
MOULTRIE*      CLOUDY    70  68  94 CALM      29.97R
VIDALIA*       CLOUDY    72  68  88 S6        30.00R
WAYCROSS*      PTCLDY    72  70  93 S8        29.98F
DOUGLAS*       CLOUDY    72  70  94 SE3       29.99S
$$




USA.gov is the U.S. government's official web portal to all federal, state and local government web resources and services.